Weather History for Fargo, ND

Change the Weather History Date:

Monday, May 5, 2014

  Actual Average Record
Temperature  
Mean Temperature 50 °F 53 °F  
Max Temperature 60 °F 66 °F 96 °F (2000)
Min Temperature 40 °F 41 °F 22 °F (1891)
Degree Days  
Heating Degree Days 15 12  
Month to date heating degree days 91 63  
Since 1 July heating degree days 9417 8519  
Cooling Degree Days 0 1  
Month to date cooling degree days 0 1  
Year to date cooling degree days 0 4  
Moisture  
Dew Point 38 °F    
Average Humidity 68    
Maximum Humidity 92    
Minimum Humidity 44    
Precipitation  
Precipitation 0.00 in 0.08 in 1.00 in (2007)
Month to date precipitation 0.02 0.38  
Year to date precipitation 5.05 4.38  
Snow  
Snow 0.00 in 0.00 in 0.80 in (1979)
Month to date snowfall 0.0 0.0  
Since 1 July snowfall 34.9 50.4  
Snow Depth 0.00 in    
Sea Level Pressure  
Sea Level Pressure 30.01 in    
Wind  
Wind Speed 7 mph (NE)    
Max Wind Speed 14 mph    
Max Gust Speed 16 mph    
Visibility 10 miles    
Events      
T = Trace of Precipitation, MM = Missing Value Source: NWS Daily Summary

Daily Weather History Graph

Daily Weather History Graph

Search for Another Location

Airport:

Trip Planner

Search our weather history database for the weather conditions in past years. The results will help you decide how hot, cold, wet, or windy it might be!

Date:

Astronomy

May. 05, 2014 Rise Set
Actual Time 6:05 AM CDT 8:43 PM CDT
Civil Twilight 5:31 AM CDT 9:17 PM CDT
Nautical Twilight 4:47 AM CDT 10:01 PM CDT
Astronomical Twilight 3:57 AM CDT 10:52 PM CDT
Moon 11:28 AM CDT (5/5) 1:27 AM CDT (5/5)
Length of Visible Light 15h 46m
Length of Day
14h 37m
Waxing Crescent, 37% of the Moon is Illuminated
May 5
Waxing Crescent
May 6
First Quarter
May 14
Full
May 21
Last Quarter
May 28
New

Hourly Weather History & Observations

Time (CDT) Temp. Windchill Dew Point Humidity Pressure Visibility Wind Dir Wind Speed Gust Speed Precip Events Conditions
12:53 AM 41.0 °F 33.9 °F 37.0 °F 86% 30.07 in 10.0 mi NNE 12.7 mph - N/A   Overcast
1:53 AM 41.0 °F 35.2 °F 37.0 °F 86% 30.04 in 10.0 mi NNE 9.2 mph - N/A   Overcast
2:53 AM 39.9 °F 33.9 °F 37.0 °F 89% 30.05 in 10.0 mi NE 9.2 mph - N/A   Overcast
3:53 AM 39.9 °F 34.5 °F 37.0 °F 89% 30.03 in 10.0 mi NE 8.1 mph - N/A   Overcast
4:53 AM 41.0 °F 35.8 °F 37.0 °F 86% 30.04 in 10.0 mi NNE 8.1 mph - N/A   Overcast
5:53 AM 39.9 °F 36.7 °F 37.0 °F 89% 30.04 in 10.0 mi ENE 4.6 mph - N/A   Overcast
6:53 AM 39.9 °F 33.9 °F 36.0 °F 86% 30.04 in 10.0 mi NNE 9.2 mph - N/A   Overcast
7:53 AM 41.0 °F 35.2 °F 37.0 °F 86% 30.06 in 10.0 mi NNE 9.2 mph - N/A   Overcast
8:53 AM 42.1 °F 37.1 °F 37.9 °F 85% 30.07 in 10.0 mi NNE 8.1 mph - N/A   Overcast
9:53 AM 44.1 °F 40.1 °F 39.0 °F 82% 30.06 in 10.0 mi NNE 6.9 mph - N/A   Overcast
10:22 AM 45.0 °F 40.1 °F 39.9 °F 82% 30.03 in 10.0 mi NNE 9.2 mph - N/A   Overcast
10:53 AM 46.9 °F - 39.9 °F 77% 30.05 in 10.0 mi NE 8.1 mph - N/A   Overcast
11:53 AM 50.0 °F - 41.0 °F 71% 30.06 in 10.0 mi NNE 8.1 mph - N/A   Overcast
12:53 PM 53.6 °F - 41.0 °F 62% 30.01 in 10.0 mi NNE 5.8 mph - N/A   Mostly Cloudy
1:53 PM 55.0 °F - 37.9 °F 53% 30.01 in 10.0 mi NE 5.8 mph - N/A   Clear
2:53 PM 55.9 °F - 36.0 °F 47% 29.99 in 10.0 mi Calm Calm - N/A   Clear
3:53 PM 59.0 °F - 37.9 °F 46% 29.97 in 10.0 mi ENE 5.8 mph - N/A   Clear
4:53 PM 60.1 °F - 39.0 °F 46% 29.95 in 10.0 mi ENE 8.1 mph - N/A   Clear
5:53 PM 59.0 °F - 37.9 °F 46% 29.94 in 10.0 mi East 5.8 mph - N/A   Clear
6:53 PM 59.0 °F - 39.0 °F 48% 29.93 in 10.0 mi Variable 4.6 mph - N/A   Clear
7:53 PM 57.0 °F - 37.9 °F 49% 29.93 in 10.0 mi NNE 8.1 mph - N/A   Clear
8:53 PM 54.0 °F - 39.9 °F 59% 29.94 in 10.0 mi North 8.1 mph - N/A   Clear
9:53 PM 51.1 °F - 39.0 °F 63% 29.96 in 10.0 mi NNE 8.1 mph - N/A   Clear
10:53 PM 48.2 °F - 39.2 °F 71% 29.94 in 10.0 mi NNE 9.2 mph - N/A   Partly Cloudy
11:53 PM 48.0 °F - 39.9 °F 74% 29.94 in 10.0 mi NE 9.2 mph - N/A   Clear